Вернуться в каталог

STARLINK-37081

АктивенСвязьSSO
NORAD 68229·PAYLOAD·🇺🇸 United States

Запущен Mar 17, 2026 с Vandenberg Space Force Base

Loading…

Ближайшие Пролёты (ближайшие 24 часа)

TLE

СвежийSource: CelesTrak SupGP

Эпоха: Sep 15, 2026, 03:51 UTC

1 68229C 26053Y   26258.16090278  .00022318  00000+0  69257-3 0  2584
2 68229  97.2846 135.0328 0002020  95.3627 255.3469 15.33437679    16

Отслеживайте STARLINK-37081 в реальном времени с AllMySat

Download on the App Store